"Pseudo-MPEC" for P10HMT0

Created 2018 Jun 17 14:18:19 UT using Find_Orb

Click here for an explanation of pseudo-MPECs

 
 Astrometry: 
     P10HMT0  C2018 06 13bVAstrometry'b00*bC!Cn)Q4OJEU5m!E1KmXoi(M,9.nIRe;S./F51
     P10HMT0  C2018 06 137_C@ciOx6PCUkZ$4+@Umh$1ACNQi?jg_TV4RFPHsA\QUy\PTO3:9F51
     P10HMT0  C2018 06 13Vthbd-RQG`a5maTC0'F3syo#TyBA9[w4#9Rel)f,D!y+/vokn$h;F51
     P10HMT0  C2018 06 13sEIrgjf#BTZ[,E'i143ggv4g2*kTy?#kAGWDie%Kq$,`jtsWblSZF51
     P10HMT0 KC2018 06 14Zul@!q_!t+BBAe(Fjredacted;y$w:nqgK3YYmmT:1t;]4pW?8S[J04
     P10HMT0 KC2018 06 143?c3c=8`1,2x2E2km%yaks(ar_dmxfY1Ov#j-0`v!rgHQf/v9e$UJ04
     P10HMT0 KC2018 06 14]51QTQ1?aCJo-/)('J*Xj:/]%38=+Nsp%MGjl(RiR!vY0Y;k)y#sJ04
     P10HMT0 KC2018 06 1492WsIj+wcWjIG6QS^TV=62/s13G%E$REMB+%_-\)0]?b7ykV=dF)691
     P10HMT0 KC2018 06 14s?:,@s,DK+LG6+,wg5.J/J;.JaAKdJD^see+$8k#cP)1g4qU-LYv691
     P10HMT0 KC2018 06 14u$F\Cgaak_y0jXH5[1fv-RnK-UxfKN;OOwLp^4bDgrhEt$Z+Dx\Q691
     P10HMT0 |C2018 06 17*PVk_TX0]M92Kf(cTjaAPg6.Gv,X]*b9PGHb1_5Jq`6S$jxe2:oS807
     P10HMT0 |C2018 06 17QWT'c._m!nCp+3U@]L[tY_W$*rN]#+l*oCImD=6F3AYhpnwjN6c+807
     P10HMT0 |C2018 06 17:mWh+ZNwCwalE_d[_wW@si4p3,vHj%CO:qLXn#@:HY$*?VaNEOCP807

Station data:
(691) Steward Observatory, Kitt Peak - Spacewatch  (N31.962174 W111.600327)
   US/Arizona.  Observer J. V. Scotti. 0.9-m f/3 reflector + CCD.
(807) Cerro Tololo Observatory, La Serena  (S30.169136 W70.805900)  Chile.
   1.5-m Ritchey-Chrétien.
(F51) Pan-STARRS 1, Haleakala  (N20.707235 W156.255910)  US/Hawaii.
   Observers N. Primak, A. Schultz, S. Watters, J. Thiel, T. Goggia. Measurer
   PS1 Science Consortium. 1.8-m Ritchey-Chrétien + CCD.
(J04) ESA Optical Ground Station, Tenerife  (N28.300924 W16.511830)  Canary
   Islands (Spain).  Observer D. Abreu. Measurers M. Micheli, D. Koschny, E.
   Schwab, M. Busch, A. Knöfel. 1.0-m f/4.4 reflector + CCD.

Orbital elements:  P10HMT0
   Perihelion 2018 Aug 19.976333 +/- 9.39 TT = 23:25:55 (JD 2458350.476333)
Epoch 2018 Jun 17.0 TT = JDT 2458286.5   Earth MOID: 0.4995   AutoNEOCP
M 341.24485 +/- 4.5                 (J2000 ecliptic)
n   0.29315760 +/- 0.0374           Peri.   47.60737 +/- 6
a   2.24423641 +/- 0.191            Node   274.40327 +/- 0.6
e   0.3260812 +/- 0.0399            Incl.    0.68201 +/- 0.026
P   3.36                   H 20.4   G  0.15   U 10.5  
q 1.51243293 +/- 0.0448    Q 2.97603990 +/- 0.392
From 13 observations 2018 June 13-17; mean residual 0".14
Residuals in arcseconds: 
180613 F51  .11+  .06+    180614 J04  .19+  .38+    180617 807  .08-  .02+    
180613 F51  .09-  .07+    180614 J04  .04-  .10-    180617 807  .01+  .09-    
180613 F51  .11-  .24-    180614 691  .12+  .03-    180617 807  .08+  .03+    
180613 F51  .05+  .08-    180614 691  .27-  .17+    
180614 J04  .11+  .16-    180614 691  .09-  .05-    

Ephemerides (geocentric):
Date (UTC) HH   RA              Dec         delta   r     elong  mag " sig PA
---- -- -- --  -------------   -----------  ------ ------ -----  --- ---- ---
2018 06 17 14  20 56 57.873   -16 58 26.84  .70797 1.5927 134.2 21.9  .34  99
2018 06 17 15  20 57 00.217   -16 58 14.48  .70767 1.5926 134.3 21.9  .34  99
2018 06 17 16  20 57 02.558   -16 58 02.12  .70736 1.5925 134.3 21.9  .34  99
2018 06 17 17  20 57 04.896   -16 57 49.78  .70706 1.5924 134.3 21.9  .34  99
2018 06 17 18  20 57 07.231   -16 57 37.45  .70675 1.5923 134.3 21.9  .34  99
2018 06 17 19  20 57 09.562   -16 57 25.12  .70645 1.5922 134.4 21.9  .35  99
2018 06 17 20  20 57 11.890   -16 57 12.81  .70614 1.5921 134.4 21.9  .35  99
2018 06 17 21  20 57 14.215   -16 57 00.50  .70584 1.5920 134.4 21.9  .35  98
2018 06 17 22  20 57 16.537   -16 56 48.21  .70553 1.5919 134.5 21.9  .35  98
2018 06 17 23  20 57 18.855   -16 56 35.92  .70523 1.5918 134.5 21.9  .35  98
2018 06 18 00  20 57 21.171   -16 56 23.65  .70493 1.5917 134.5 21.9  .35  98
2018 06 18 01  20 57 23.483   -16 56 11.38  .70462 1.5916 134.6 21.9  .35  98
2018 06 18 02  20 57 25.792   -16 55 59.12  .70432 1.5915 134.6 21.9  .35  98
2018 06 18 03  20 57 28.097   -16 55 46.87  .70401 1.5914 134.6 21.9  .35  97
2018 06 18 04  20 57 30.400   -16 55 34.63  .70371 1.5913 134.6 21.9  .35  97
2018 06 18 05  20 57 32.699   -16 55 22.40  .70341 1.5912 134.7 21.9  .35  97
2018 06 18 06  20 57 34.995   -16 55 10.19  .70311 1.5911 134.7 21.9  .35  97
2018 06 18 07  20 57 37.288   -16 54 57.97  .70280 1.5910 134.7 21.9  .35  97
2018 06 18 08  20 57 39.578   -16 54 45.77  .70250 1.5909 134.8 21.9  .35  96
2018 06 18 09  20 57 41.864   -16 54 33.58  .70220 1.5909 134.8 21.9  .35  96
2018 06 18 10  20 57 44.147   -16 54 21.40  .70190 1.5908 134.8 21.9  .35  96
2018 06 18 11  20 57 46.427   -16 54 09.23  .70160 1.5907 134.9 21.9  .35  95
2018 06 18 12  20 57 48.704   -16 53 57.07  .70129 1.5906 134.9 21.9  .34  95
2018 06 18 13  20 57 50.977   -16 53 44.92  .70099 1.5905 134.9 21.9  .34  95
2018 06 18 14  20 57 53.247   -16 53 32.77  .70069 1.5904 134.9 21.9  .34  94
2018 06 18 15  20 57 55.514   -16 53 20.64  .70039 1.5903 135.0 21.9  .34  94
2018 06 18 16  20 57 57.778   -16 53 08.52  .70009 1.5902 135.0 21.9  .34  94
2018 06 18 17  20 58 00.039   -16 52 56.40  .69979 1.5901 135.0 21.9  .34  93
2018 06 18 18  20 58 02.296   -16 52 44.30  .69949 1.5900 135.1 21.9  .34  93
2018 06 18 19  20 58 04.550   -16 52 32.20  .69919 1.5899 135.1 21.9  .33  92
2018 06 18 20  20 58 06.801   -16 52 20.12  .69889 1.5898 135.1 21.9  .33  92
2018 06 18 21  20 58 09.048   -16 52 08.05  .69859 1.5897 135.2 21.9  .33  92
2018 06 18 22  20 58 11.293   -16 51 55.98  .69829 1.5896 135.2 21.9  .33  91
2018 06 18 23  20 58 13.534   -16 51 43.93  .69799 1.5895 135.2 21.9  .32  91
2018 06 19 00  20 58 15.772   -16 51 31.88  .69769 1.5894 135.3 21.9  .32  90
2018 06 19 01  20 58 18.006   -16 51 19.84  .69739 1.5893 135.3 21.9  .32  89
2018 06 19 02  20 58 20.238   -16 51 07.82  .69709 1.5892 135.3 21.9  .31  89
2018 06 19 03  20 58 22.466   -16 50 55.80  .69680 1.5891 135.3 21.9  .31  88
2018 06 19 04  20 58 24.691   -16 50 43.80  .69650 1.5890 135.4 21.9  .31  88
2018 06 19 05  20 58 26.912   -16 50 31.80  .69620 1.5889 135.4 21.9  .30  87
2018 06 19 06  20 58 29.131   -16 50 19.82  .69590 1.5888 135.4 21.9  .30  86
2018 06 19 07  20 58 31.346   -16 50 07.84  .69560 1.5887 135.5 21.9  .30  85
2018 06 19 08  20 58 33.558   -16 49 55.87  .69531 1.5886 135.5 21.9  .29  85
2018 06 19 09  20 58 35.766   -16 49 43.92  .69501 1.5885 135.5 21.9  .29  84
2018 06 19 10  20 58 37.972   -16 49 31.97  .69471 1.5884 135.6 21.9  .29  83
2018 06 19 11  20 58 40.174   -16 49 20.03  .69441 1.5883 135.6 21.9  .28  82
2018 06 19 12  20 58 42.373   -16 49 08.11  .69412 1.5882 135.6 21.9  .28  81
2018 06 19 13  20 58 44.568   -16 48 56.19  .69382 1.5881 135.6 21.9  .27  80